{"data":{"norad_id":65689,"epoch":"2026-05-24T14:29:14.387136Z","epoch_age_seconds":105907,"freshness":"FRESH","line1":"1 65689U 25212P   26144.60363874  .00012197  00000+0  42318-3 0  9990","line2":"2 65689  53.1602 353.2523 0001296  98.8887 261.2261 15.30206532 38864","mean_motion":15.30206532,"eccentricity":0.0001296,"inclination_deg":53.1602,"raan_deg":353.2523,"arg_perigee_deg":98.8887,"mean_anomaly_deg":261.2261,"bstar":0.00042318,"rev_number":3886,"period_min":94.104943998501,"perigee_km":474.30737421354,"apogee_km":476.08375801467,"semimajor_km":6853.3325661141,"source":"CELESTRAK","updated_at":"2026-05-25T13:38:20.896418Z"}}